Simultaneous Nadir Overpasses (SNOs) Predictions

Prediction of SNOs between METOP-B and NOAA-19 Satellite Orbit:

Table of predicted SNOs for the next 14.0 days since TLE Epoch: 2/12/2015
Index Date (METOP-B) Time (METOP-B) Lat,Lon (METOP-B) SZA (METOP-B ) Date (NOAA-19) Time (NOAA-19) Lat,Lon (NOAA-19) SZA (NOAA-19 ) Distance(km) Time Diff (sec)
1 02/16/2015 15:22:30 74.61, -54.06 86.93 02/16/2015 15:21:18 74.61, -54.12 86.94 1.80 72
2 02/16/2015 16:13:12 -74.57, 113.17 93.12 02/16/2015 16:12:13 -74.60, 113.19 93.09 2.73 59
3 02/16/2015 17:03:52 74.59, -79.45 86.89 02/16/2015 17:03:20 74.57, -79.50 86.87 2.83 32
4 02/16/2015 17:54:34 -74.55, 87.78 93.17 02/16/2015 17:54:15 -74.55, 87.81 93.16 0.96 19
5 02/16/2015 18:45:15 74.52,-104.98 86.80 02/16/2015 18:45:22 74.52,-104.89 86.80 2.73 7
6 02/16/2015 19:35:56 -74.53, 62.38 93.21 02/16/2015 19:36:17 -74.51, 62.42 93.24 3.00 21
7 02/16/2015 20:26:37 74.50,-130.38 86.75 02/16/2015 20:27:25 74.52,-130.41 86.77 3.10 48
8 02/16/2015 21:17:18 -74.51, 36.99 93.25 02/16/2015 21:18:20 -74.51, 36.91 93.26 2.35 62
9 02/16/2015 22:08:10 73.94,-157.14 86.22 02/16/2015 22:09:16 73.95,-154.39 86.13 84.47 66




NCC Satellite Simultaneous Nadir Overpasses (SNOs) Prediction Service
